Tracking 19146 objects as of 24-Apr-2018
HD Live streaming from Space Station
objects crossing your sky now

FENGYUN 1C DEB

Track FENGYUN 1C DEB now!
10-day predictions


NORAD ID: 30937
Int'l Code: 1999-025BAB
Perigee: 862.8 km
Apogee: 974.4 km
Inclination: 99.4 °
Period: 103.2 minutes
Semi major axis: 7289 km
RCS: 0.031 m2 (small)
Launch date: May 10, 1999
Source: People's Republic of China (PRC)
Launch site: Taiyaun Space Center, China (TSC)

Note: This is SATELLITE DEBRIS
aabbcc
Your satellite tracking list
Your tracking list is empty




NASA's NSSDC Master Catalog

Two Line Element Set (TLE):
1 30937U 99025BAB 18113.93424963 +.00000217 +00000-0 +19076-3 0  9997
2 30937 099.3781 115.3911 0076562 075.0518 303.8313 13.94921631568160
Source of the keplerian elements: AFSPC